Location: Pic du Midi - T1M
(42.9366°N, 0.1426°E)
Time: 00:57:31
(UTC+01:00)

DX 1 - Pass Details

Date: 21 September 2021
Orbit: 618 x 630 km, 98.4° (Epoch: 19 October)

Event Time Altitude Azimuth Distance (km) Brightness Sun altitude
Rises 21:23:55 0° 8° (N) 2,897 ? -26.4°
Reaches altitude 10° 21:26:09 10° 3° (N) 1,987 ? -26.8°
Maximum altitude 21:30:19 49° 288° (WNW) 801 ? -27.5°
Enters shadow 21:31:26 38° 244° (WSW) 942 ? -27.7°
